Flag for U.S.A. Weather past 2 weeks in Irvine, California, U.S.A.

Now
72 °F

Scattered clouds.


Feels Like: 77 °F
Forecast: 52 / 75 °F
Wind: 7 mph from West

Location: John Wayne Airport-Orange County Airport

Current Time: Jan 27, 2015 at 4:04:52 PM

Latest Report: Jan 27, 2015 at 2:53 PM


Visibility: 10 mi

Pressure: 30.14 "Hg

Humidity: 46%

Dew point: 50 °F

Location of IrvineLocation

Historic Weather in Irvine — Graph

°F

Irvine temperature yesterday

Maximum temperature yesterday: 80 °F (at 11:53 AM)
Minimum temperature yesterday: 59 °F (at 10:53 PM)
Average temperature yesterday: 66 °F

Past Weeks' High & Low Weather Summary

 TemperatureHumidityPressure
High84 °F (Jan 25, 12:53 PM)90% (Jan 20, 1:53 AM)30.25 "Hg (Jan 20, 1:53 AM)
Low49 °F (Jan 15, 5:53 AM)5% (Jan 23, 1:53 PM)29.93 "Hg (Jan 25, 2:53 PM)
Average64 °F51%30.10 "Hg
* Reported Jan 12 2:53 PM — Jan 27 2:53 PM, Irvine, Weather by CustomWeather, © 2014

Note: Actual official high and low records may vary slightly from our data, if they occured in-between our weather recording intervals... More about our weather records

Advertising

Irvine weather history for previous 24 hours

 ConditionsComfort  
Time TempWeatherWind HumidityBarometerVisibility
2:53 PM
Jan 27
72 °FScattered clouds.7 mph46%30.14 "Hg10 mi
1:53 PM72 °FScattered clouds.7 mph44%30.14 "Hg10 mi
12:53 PM74 °FScattered clouds.3 mph37%30.14 "Hg10 mi
11:53 AM72 °FScattered clouds.No wind43%30.16 "Hg10 mi
10:53 AM70 °FScattered clouds.No wind47%30.18 "Hg10 mi
9:53 AM67 °FScattered clouds.No wind59%30.19 "Hg10 mi
8:53 AM64 °FScattered clouds.No wind65%30.19 "Hg10 mi
7:53 AM58 °FScattered clouds.No wind78%30.19 "Hg10 mi
6:53 AM56 °FScattered clouds.No wind77%30.17 "Hg10 mi
5:53 AM55 °FPassing clouds.No wind83%30.14 "Hg10 mi
4:53 AM55 °FClear.No wind83%30.13 "Hg10 mi
3:53 AM56 °FPassing clouds.No wind81%30.12 "Hg10 mi
2:53 AM57 °FOvercast.No wind81%30.12 "Hg10 mi
1:53 AM57 °FClear.No wind83%30.11 "Hg10 mi
12:53 AM59 °FPartly cloudy.No wind78%30.10 "Hg10 mi
11:53 PM
Jan 26
60 °FOvercast.No wind72%30.11 "Hg10 mi
10:53 PM59 °FPartly cloudy.No wind75%30.10 "Hg10 mi
9:53 PM61 °FPassing clouds.3 mph70%30.09 "Hg10 mi
8:53 PM60 °FPassing clouds.7 mph75%30.08 "Hg10 mi
7:53 PM60 °FMostly cloudy.6 mph78%30.08 "Hg10 mi
6:53 PM61 °FLight rain. Mostly cloudy.7 mph72%30.09 "Hg7 mi
5:53 PM62 °FLight rain. Mostly cloudy.6 mph67%30.06 "Hg10 mi
4:53 PM62 °FLight rain. Overcast.9 mph70%30.05 "Hg8 mi
Weather by CustomWeather, © 2014

See weather overviewHow to use our weather pages